Dewpoint
57 50 47 53 50 50 39 40 28 34 30 26 24 26 26 29 32 33 34 33 33 34 36 42 40 38 27 32 41 50 54 42 43 39 36 46 63 66 67 68 68 68 68 68 67 67 66 68 67 66 65 64 64 64 65 67 68 67 67 67 66 66 65 65 64 64 66 67 67 67 67 67 66 65 64 64 64 64 64 65 65 64 65 64 64 65 64 64 67 67 67 68 68 68 68 68 68
56 50 50 50 47 36 34 40 31 28 27 23 23 26 24 24 32 32 32 34 34 36 41 51 54 55 55 55 55 50 49 56 54 55 60 64 66 66 67 68 68 68 68 67 67 66 65 66 68 67 65 64 64 64 66 67 68 68 68 67 66 65 65 64 63 65 67 66 67 69 69 68 65 64 63 63 63 64 65 65 65 65 66 66 65 65 65 64 64 67 68 68 68 68 68 68 68
55 49 48 48 43 40 39 35 27 25 23 18 21 23 25 26 31 32 31 33 34 40 49 50 49 50 50 51 47 42 39 58 61 61 63 66 64 65 68 68 68 68 68 67 67 66 65 66 68 67 65 65 64 66 68 68 68 68 68 67 66 65 63 63 64 66 67 67 67 67 67 67 65 63 63 63 64 64 65 65 65 64 63 64 64 64 65 64 64 67 68 67 68 67 67 67 68
51 53 47 44 39 38 30 30 31 26 23 24 20 22 27 25 29 29 30 34 38 44 41 38 47 45 50 51 49 53 54 57 60 62 62 64 64 67 68 68 68 68 68 67 66 66 65 67 67 67 66 65 65 69 70 70 69 69 68 66 65 65 65 64 65 66 67 67 67 65 65 66 65 63 63 64 62 62 62 62 63 63 64 64 64 63 63 64 63 66 67 67 67 68 68 68 68
50 53 49 44 39 34 32 29 27 25 22 23 20 24 32 29 29 31 36 37 37 35 38 40 48 50 51 52 51 49 52 57 61 61 62 63 67 67 68 68 68 68 67 67 66 65 65 67 67 67 65 65 65 69 69 69 69 69 68 66 65 65 65 64 65 66 66 65 65 65 66 66 65 65 65 65 65 65 64 63 64 63 63 65 65 64 64 64 64 66 67 67 67 67 67 67 67
45 49 50 42 33 40 34 26 27 24 25 23 24 26 30 30 33 35 35 36 35 36 37 41 46 47 53 54 53 54 56 56 58 61 62 64 67 68 68 68 68 68 67 67 66 65 65 67 67 67 66 65 64 67 68 69 69 69 68 66 65 65 65 63 61 66 63 63 64 63 66 65 64 64 68 67 67 67 67 66 65 65 65 64 64 64 64 64 64 66 66 67 67 67 67 67 66
42 39 41 35 33 37 30 27 27 28 26 24 27 30 31 32 35 35 33 33 34 40 44 47 51 49 49 51 54 57 57 58 60 60 63 66 67 68 68 68 68 67 67 66 66 66 65 67 67 67 68 67 65 66 69 69 69 69 69 66 65 65 65 62 62 62 63 63 63 64 66 66 64 63 64 64 65 65 66 66 66 66 66 66 66 66 65 65 65 66 67 66 66 67 67 67 67
50 35 38 27 29 30 26 27 28 28 21 24 29 30 32 33 34 33 33 34 34 37 45 49 45 45 45 52 50 55 58 59 60 63 66 67 68 68 68 68 67 67 67 67 66 65 67 67 68 68 68 65 66 68 69 69 69 69 69 67 67 66 65 62 62 62 63 65 66 66 66 65 64 63 63 64 64 64 64 64 64 64 64 63 63 63 64 64 64 66 66 66 66 66 66 67 66
44 42 43 29 24 31 28 24 24 28 24 27 31 34 38 34 34 33 32 31 35 38 41 41 40 38 42 52 52 54 57 60 64 65 66 67 67 67 67 67 67 67 67 67 66 66 65 67 68 68 67 67 67 67 69 69 69 69 69 68 67 66 65 64 63 63 63 63 63 64 64 64 63 63 64 64 64 64 63 63 63 63 63 64 65 65 64 64 64 65 66 66 67 66 66 66 66
39 34 30 30 30 21 23 25 21 21 20 23 33 32 35 35 34 30 30 33 35 36 36 37 39 35 45 52 52 55 57 61 64 65 66 66 66 67 67 67 67 67 67 67 66 66 66 68 66 67 67 68 68 68 69 69 69 69 69 67 66 66 65 64 63 62 62 62 63 64 64 63 64 63 64 64 63 64 64 64 63 63 63 63 63 63 63 63 63 65 66 66 66 66 65 65 66
34 40 39 28 26 21 23 23 28 28 20 22 28 27 34 33 31 28 29 32 33 32 38 48 49 51 52 52 51 55 58 60 64 64 65 66 66 66 67 67 67 67 67 67 67 67 66 66 67 66 67 67 68 68 68 69 68 68 68 67 66 65 65 64 63 63 62 62 61 61 61 61 62 63 63 63 63 63 64 63 63 63 63 64 63 63 64 64 64 64 65 66 66 65 65 64 65
29 35 36 29 24 22 25 24 26 28 25 25 29 30 30 31 28 28 31 32 32 36 39 44 43 51 50 50 51 55 57 60 63 64 65 65 65 66 67 67 67 67 67 67 67 67 66 65 65 67 66 66 67 68 68 68 68 68 68 66 66 65 65 64 64 63 63 62 65 66 66 65 63 64 64 63 63 64 63 63 63 63 63 63 63 63 63 63 64 64 65 66 66 65 65 64 64
33 36 29 25 23 25 28 24 25 34 22 22 27 27 27 26 25 27 30 32 31 31 32 33 49 50 48 47 50 55 57 60 61 63 63 64 65 66 67 67 67 67 67 67 68 67 66 65 65 65 65 65 65 66 66 67 67 68 67 67 66 65 65 64 63 64 64 64 68 67 68 68 67 65 64 64 66 64 64 64 64 64 64 63 63 63 63 63 64 65 65 66 66 65 65 64 64
38 36 29 27 28 28 26 26 24 19 18 24 23 26 27 24 24 28 31 30 30 30 30 34 52 53 52 52 52 53 57 60 60 61 62 64 66 67 67 67 67 67 67 68 67 67 67 66 65 65 64 64 64 64 64 66 67 68 68 67 67 66 66 65 65 67 68 68 68 67 67 68 68 68 67 66 66 66 66 66 65 63 63 63 63 63 63 64 64 65 65 65 65 65 65 64 64
36 41 35 30 28 23 27 21 22 22 19 21 22 25 25 27 27 31 29 29 30 30 36 36 51 40 39 49 49 56 58 60 60 60 63 65 66 67 67 67 67 67 67 67 67 67 67 67 67 66 64 64 63 63 63 65 65 66 67 67 67 67 66 66 67 65 66 67 66 65 65 65 65 66 66 66 66 65 65 64 65 65 63 63 63 63 63 64 64 64 65 65 65 65 64 64 64
40 37 34 29 26 25 26 23 26 22 20 22 22 25 24 23 27 30 30 30 29 35 36 44 36 32 39 43 48 57 59 60 60 61 64 65 66 66 66 66 66 67 67 67 67 67 67 67 67 66 66 64 63 63 63 63 64 64 65 66 66 66 66 66 65 64 63 63 63 63 62 61 61 62 62 63 64 65 64 62 64 65 63 63 62 62 63 63 63 64 65 65 65 65 64 64 64
42 38 27 28 24 24 25 23 22 19 24 25 25 23 22 22 24 26 27 29 29 33 51 53 43 54 52 46 48 59 59 60 60 62 64 65 65 65 65 65 66 66 66 66 66 66 67 67 67 67 66 64 63 63 62 63 64 63 64 64 64 65 65 64 64 61 59 59 59 59 59 59 59 61 61 61 60 61 60 61 63 65 63 63 63 62 62 62 63 64 64 65 65 64 61 61 60
37 29 28 25 28 25 29 23 23 25 22 21 24 23 22 21 23 24 30 36 41 45 48 51 55 55 55 54 55 59 60 60 61 62 63 63 64 63 64 64 65 64 65 65 66 66 66 66 67 67 66 65 65 64 65 65 64 64 65 64 62 62 62 61 60 59 61 57 58 58 58 59 59 58 60 63 60 60 60 61 63 64 64 64 64 62 62 62 62 63 64 64 65 63 59 55 55
33 30 28 25 29 29 30 25 24 21 22 21 23 24 22 21 23 24 25 28 40 40 46 54 54 54 55 56 58 59 59 59 60 62 62 62 63 63 63 64 64 64 64 65 66 66 66 66 67 66 66 66 66 66 66 66 65 65 65 64 61 61 61 59 59 58 57 57 57 57 57 58 58 58 59 60 59 59 60 60 62 63 64 63 64 63 63 62 62 62 63 64 64 59 55 54 54
34 28 24 28 31 29 30 26 23 24 23 22 23 24 22 22 23 25 24 28 34 33 39 48 51 52 54 55 58 58 59 59 59 61 62 63 63 63 63 63 63 64 64 65 66 66 67 66 66 66 66 66 66 66 66 65 65 65 65 64 61 60 60 59 58 57 57 57 57 57 57 57 57 57 62 62 62 58 58 60 61 61 62 62 62 62 62 63 63 64 63 62 59 56 55 54 54
31 26 26 27 31 23 21 23 22 21 23 23 23 23 22 23 23 23 24 30 31 31 37 41 47 54 55 56 57 58 58 58 58 59 61 62 63 64 64 64 64 64 65 66 65 66 66 66 67 66 67 66 66 66 66 65 65 65 65 64 60 60 60 59 59 58 57 57 56 57 57 56 56 57 57 58 57 57 57 58 58 58 57 58 59 57 57 57 56 56 55 55 55 54 55 55 55
32 24 27 28 28 20 20 21 22 22 23 22 23 22 22 23 23 22 27 24 23 27 28 42 47 56 56 56 57 58 58 58 58 58 59 61 62 63 64 64 64 65 65 64 65 66 66 66 67 66 66 66 66 66 66 65 65 65 65 64 64 61 60 59 59 59 58 58 57 57 58 57 56 57 57 57 57 57 57 57 57 56 56 56 56 56 56 56 55 55 54 54 54 53 53 54 53
23 26 25 24 23 22 22 23 22 22 23 22 22 23 22 22 22 22 26 23 23 25 29 40 52 57 57 57 58 58 58 58 58 58 59 60 61 62 63 64 63 63 63 64 65 66 66 66 66 67 66 66 66 66 66 65 65 65 65 65 64 63 62 60 60 59 59 58 58 57 58 57 57 57 56 56 57 56 58 57 57 55 56 55 56 56 56 56 55 55 54 53 52 52 53 52 53
25 21 24 21 23 22 22 21 23 22 23 22 23 23 22 21 20 22 24 25 23 21 23 43 55 57 57 57 57 58 58 58 58 58 59 60 61 61 62 62 63 63 63 64 64 65 65 66 66 66 66 66 66 66 66 65 65 65 65 65 65 64 63 62 61 60 59 59 58 58 58 58 57 57 57 56 56 55 57 57 56 56 55 55 55 55 55 55 55 54 53 52 52 51 52 52 52
22 20 25 24 24 22 22 22 21 22 22 23 22 21 21 22 21 21 21 23 22 32 40 55 57 57 57 57 57 57 57 58 58 58 57 58 59 60 59 61 61 62 62 63 63 64 65 65 66 66 66 66 66 66 65 65 65 65 65 65 64 63 64 63 61 60 60 59 58 58 57 58 57 58 57 58 56 57 56 56 56 56 56 55 55 55 55 55 54 54 53 54 52 52 51 53 51
22 21 23 21 20 21 21 21 21 22 23 21 21 20 20 21 21 19 20 20 22 38 49 56 57 57 57 56 57 57 57 57 58 58 58 58 58 59 59 60 60 61 61 62 62 63 64 64 66 66 66 66 66 66 66 65 65 65 65 65 65 64 64 63 60 61 61 60 59 59 58 58 58 58 58 57 57 57 56 56 56 56 56 55 55 56 56 55 55 53 53 54 54 53 52 54 52
23 22 22 20 19 21 23 21 20 22 22 21 20 20 20 21 18 15 17 19 42 36 50 54 56 57 57 56 57 57 57 57 57 58 58 56 57 58 59 59 60 61 61 61 61 61 62 63 65 66 66 65 66 66 66 66 65 65 65 65 65 64 64 63 61 61 61 60 60 59 58 58 58 58 58 58 57 57 57 56 56 56 55 55 56 56 55 56 55 55 55 54 54 54 54 53 52
21 20 19 18 20 21 21 20 20 22 19 21 20 20 22 20 20 16 15 22 41 39 49 54 55 56 56 56 57 57 57 57 58 57 57 57 58 58 59 59 60 60 60 61 61 60 60 62 64 65 65 65 65 66 65 66 65 65 64 65 65 64 63 62 62 61 60 61 60 60 59 58 58 58 58 57 57 57 56 56 56 56 57 55 56 56 55 55 56 54 53 53 53 52 53 52 51
20 18 17 17 19 18 20 19 20 21 19 20 20 18 18 21 17 18 18 31 43 42 48 53 53 54 55 56 56 57 57 57 57 57 58 58 59 59 59 60 60 60 61 61 61 59 60 60 63 64 65 65 65 65 65 66 66 65 64 64 65 64 63 62 62 61 61 61 61 60 60 59 57 58 58 57 57 57 56 56 55 56 57 57 56 56 55 54 53 53 54 51 52 52 54 55 53
23 20 18 17 18 17 18 22 21 20 19 21 20 16 18 17 18 19 22 40 43 42 45 50 52 52 54 55 56 56 57 56 57 58 58 59 59 59 59 60 60 60 60 60 60 60 60 60 61 63 64 65 65 65 65 65 65 65 64 64 64 64 63 63 62 62 61 61 61 60 59 59 58 58 57 57 57 57 56 56 56 56 56 56 55 56 57 56 56 54 54 52 54 54 55 55 54
24 21 19 22 19 18 19 21 21 18 23 21 17 18 16 17 18 20 24 38 42 39 42 46 49 50 52 53 55 55 56 57 57 58 58 58 59 59 59 59 59 60 60 59 60 60 59 60 60 61 63 64 64 65 64 65 64 65 64 64 64 64 64 63 63 62 61 61 61 61 60 59 59 58 58 58 57 57 56 56 56 57 57 57 57 57 58 56 56 56 56 55 55 55 55 54 54
28 31 21 23 19 20 23 25 19 16 19 19 16 19 16 15 16 16 20 33 40 36 39 44 46 47 49 51 53 54 55 56 56 57 58 58 58 59 59 59 59 59 59 60 60 60 60 59 59 60 61 63 64 64 64 64 64 64 64 62 64 63 63 63 63 63 62 61 61 61 60 59 59 59 58 58 58 57 57 57 57 57 57 58 58 57 57 56 56 56 56 56 55 54 54 54 52
35 27 25 22 20 20 16 19 23 23 19 20 16 16 16 14 15 17 21 29 35 35 35 40 44 45 46 49 51 52 52 52 54 55 56 58 58 59 59 59 59 59 59 59 59 59 60 60 59 59 60 62 63 63 63 63 63 63 63 63 63 63 63 63 63 63 62 62 61 61 60 60 59 59 59 59 59 59 58 58 57 57 58 58 58 58 57 57 56 56 55 54 54 55 52 52 52
27 25 24 30 18 17 15 18 22 27 19 17 18 15 14 12 13 15 22 25 27 30 30 32 39 41 42 45 47 49 50 51 52 54 55 56 58 59 59 58 59 59 59 59 59 59 59 59 59 59 60 61 63 63 63 63 63 63 63 63 62 63 63 63 63 63 62 62 61 61 60 60 60 60 60 60 60 60 59 59 58 58 58 58 58 58 57 57 56 56 56 54 53 51 51 52 53
27 20 18 17 22 17 15 18 16 22 20 16 16 16 15 15 16 16 19 22 23 24 25 23 27 34 36 37 39 43 46 47 49 51 54 55 56 58 59 59 59 59 60 60 59 59 59 59 59 59 59 60 61 62 62 62 62 62 62 62 62 62 63 63 63 62 62 62 62 61 61 60 60 60 61 61 60 60 60 60 59 58 57 57 57 57 57 56 54 53 55 56 52 53 52 53 53
23 24 20 21 16 14 13 15 19 22 17 16 15 15 15 16 16 16 16 20 20 21 20 19 18 20 27 31 32 34 38 42 44 46 49 53 56 57 58 59 59 59 59 60 59 59 59 59 59 59 59 60 61 61 62 62 61 61 61 59 61 61 62 61 62 62 62 62 61 61 61 61 62 61 61 61 61 61 60 60 60 59 58 57 56 56 56 56 56 55 55 55 54 52 51 52 53
21 26 26 21 20 17 16 18 20 22 20 16 15 15 15 15 15 15 15 19 21 20 19 19 19 18 20 25 29 31 32 36 40 44 47 51 54 56 58 59 59 59 59 59 59 59 59 59 59 59 59 60 61 61 61 61 61 61 61 61 62 62 61 61 61 61 62 62 61 61 61 61 62 62 62 62 61 60 61 61 61 60 59 58 57 56 56 56 56 54 54 53 54 54 53 53 54
22 25 25 25 25 18 15 18 22 22 17 17 17 17 17 15 15 15 16 16 16 18 19 19 19 18 19 21 24 27 29 32 35 39 45 49 52 54 56 57 57 58 58 59 59 59 60 60 59 60 60 60 61 61 61 61 61 62 62 62 61 61 61 61 61 60 61 61 61 61 61 61 61 62 62 63 62 62 61 61 60 60 59 59 58 58 58 56 57 55 54 54 53 54 54 54 54
23 27 27 24 22 22 18 18 22 22 19 16 19 16 16 16 16 17 16 15 15 16 18 18 18 20 19 18 20 22 26 28 30 34 39 45 50 53 55 56 57 58 58 59 59 59 59 59 60 60 60 60 61 61 61 61 62 61 62 60 61 58 56 59 60 59 60 61 61 61 61 61 61 61 62 61 62 62 62 62 61 61 61 60 60 58 56 56 56 56 55 55 53 51 53 54 54
27 26 24 20 24 20 17 16 21 21 18 18 20 16 17 16 16 17 18 17 17 18 17 19 23 20 20 18 18 20 21 24 26 29 33 37 45 51 53 54 56 57 57 58 59 59 59 59 60 60 60 60 61 61 60 61 61 60 59 57 59 60 58 57 57 56 58 59 60 59 60 60 60 61 61 62 62 62 62 62 61 61 61 60 60 59 58 58 58 57 57 56 56 54 52 52 52
28 27 24 21 22 20 16 13 20 20 19 22 17 19 16 16 13 13 14 17 18 18 20 20 23 26 24 27 26 25 20 20 23 25 30 33 37 46 52 54 55 56 57 57 58 59 59 59 59 60 60 60 61 60 60 60 59 57 56 54 55 56 54 54 54 58 59 58 59 58 59 58 60 60 61 62 61 62 62 62 61 60 60 60 60 59 59 59 58 58 58 57 56 56 55 52 50
25 28 24 21 19 19 21 23 18 18 18 23 21 14 17 20 21 17 13 15 13 14 18 18 18 20 23 22 22 23 28 25 22 23 26 30 33 39 48 52 54 55 56 57 58 59 59 59 59 60 60 60 60 60 60 60 59 60 58 59 58 58 59 57 58 59 57 57 59 57 55 57 58 59 60 61 61 61 62 62 61 61 60 60 60 60 60 58 59 58 58 58 57 57 57 54 53
22 21 25 21 18 22 26 24 22 16 14 20 18 15 15 18 15 13 15 17 14 14 16 16 17 19 20 22 22 22 22 23 26 26 27 29 31 35 42 49 53 54 56 56 57 57 58 59 59 59 60 60 60 60 60 59 59 60 59 60 60 59 59 58 54 52 56 54 54 56 57 55 57 59 59 60 61 61 61 61 61 61 61 61 59 59 58 58 58 58 57 56 56 55 54 54 54
20 27 26 25 22 23 24 26 22 23 27 24 23 18 12 14 13 14 17 16 15 14 13 15 14 15 19 20 21 22 23 23 25 26 27 28 30 32 36 44 51 53 55 55 55 56 57 58 58 58 59 59 59 59 59 60 60 60 59 59 59 59 59 57 53 51 52 52 54 54 53 54 55 57 59 59 60 60 60 59 59 60 59 59 58 58 58 57 56 56 55 56 56 55 55 54 54
22 24 28 25 21 22 24 24 21 24 18 19 19 22 10 13 14 17 16 12 11 11 10 11 13 15 14 17 20 21 22 24 25 26 26 27 30 33 35 39 47 51 52 53 54 55 56 56 56 57 58 58 58 58 58 59 59 60 60 59 58 57 56 53 50 48 52 50 53 49 51 52 54 54 57 58 58 58 58 58 58 58 58 58 56 57 57 57 57 56 55 55 55 54 54 54 53
24 34 35 34 32 31 29 22 22 19 14 17 18 18 9 14 20 18 18 11 11 12 11 11 12 14 16 18 18 19 20 24 27 26 26 28 31 34 37 40 42 48 49 49 49 50 52 53 54 55 56 57 57 57 58 58 59 58 59 58 58 57 52 48 50 50 50 49 52 49 50 52 53 54 54 56 56 57 57 57 57 57 57 57 55 56 56 56 56 56 55 55 54 54 54 53 53
33 32 28 28 28 26 26 26 22 17 14 18 21 21 13 12 18 14 14 15 9 8 7 6 10 14 15 18 18 22 23 24 26 29 30 31 33 36 37 39 42 41 42 44 47 49 50 52 54 54 56 56 56 57 57 58 58 58 59 58 58 56 53 53 51 48 48 48 51 49 51 51 52 53 53 53 55 55 56 55 56 56 55 53 54 55 55 55 55 55 54 54 54 53 53 53 52
31 26 25 25 23 25 23 25 26 14 14 20 22 21 15 12 14 16 15 12 13 6 4 4 7 13 16 19 23 24 23 25 28 31 31 34 36 38 37 38 40 41 39 41 43 43 48 50 52 53 53 54 55 56 56 57 58 58 58 58 57 56 54 54 54 52 51 52 51 51 48 50 50 51 52 52 51 50 51 53 54 54 54 54 54 54 54 54 54 54 53 52 52 53 52 51 51
28 25 20 19 21 19 17 15 15 15 13 14 16 21 15 15 14 11 10 8 9 11 11 10 13 13 16 19 28 33 36 34 33 34 35 36 38 39 39 39 38 39 41 42 42 43 45 47 50 52 53 52 54 54 55 56 56 57 57 57 56 55 54 54 54 53 51 52 51 51 50 51 49 50 49 49 47 49 49 51 51 51 50 51 52 53 53 53 53 52 52 51 51 51 51 50 50
25 21 22 19 15 13 13 14 11 12 16 16 15 19 13 16 15 19 16 15 14 13 14 15 15 14 16 18 26 34 35 35 37 37 37 37 39 39 38 38 38 39 39 41 40 41 42 45 48 51 52 51 52 53 54 55 55 55 55 55 55 54 54 54 54 53 51 52 52 52 52 52 51 51 48 48 47 47 48 49 46 45 45 46 48 49 50 51 52 51 50 50 49 49 49 49 49
24 27 23 23 20 14 12 10 11 14 17 15 21 11 16 11 12 18 17 18 19 18 18 19 19 19 19 21 30 33 34 35 34 35 37 37 38 38 38 39 39 39 40 40 39 40 40 43 46 48 50 49 50 52 53 54 54 53 53 54 54 54 54 53 53 53 52 51 50 51 49 48 50 46 48 47 47 47 46 47 45 45 44 45 45 47 49 50 50 50 49 49 49 48 47 47 48
25 28 26 21 19 23 13 19 16 12 10 9 13 14 20 14 16 17 18 18 18 20 20 23 24 28 30 31 31 31 33 35 35 35 37 37 37 37 38 38 39 39 39 40 40 40 41 42 43 46 49 48 49 50 52 53 53 52 52 53 53 53 51 52 51 49 50 51 50 50 47 46 46 45 44 46 44 46 45 44 44 43 43 43 43 45 48 47 45 46 46 46 45 45 44 43 44
22 21 19 23 25 18 17 17 18 14 14 12 16 14 16 18 10 10 13 16 14 16 15 17 19 23 29 31 31 32 34 35 36 37 36 37 36 37 38 39 39 40 40 41 41 41 42 43 44 46 47 46 48 49 51 51 51 51 51 52 51 51 51 51 51 50 49 48 49 48 47 45 44 45 44 43 43 43 44 44 44 43 42 42 42 42 43 43 43 43 42 42 41 40 40 40 40
22 18 21 28 31 27 18 12 13 8 10 12 11 10 10 9 12 20 12 11 9 12 13 12 15 21 24 27 31 33 34 35 36 37 37 37 37 38 38 38 39 41 41 41 42 42 43 43 44 46 46 48 47 49 49 50 50 51 50 50 50 51 51 50 49 48 47 47 46 45 44 45 44 43 44 42 43 42 42 41 42 41 40 41 40 40 40 40 41 40 40 39 38 36 36 36 36
24 23 29 18 16 13 15 15 8 4 3 6 9 13 13 13 10 16 9 9 8 8 12 12 12 17 21 24 28 32 33 34 36 37 37 38 38 38 38 39 39 40 40 41 42 43 43 43 43 45 46 47 48 48 48 49 50 50 50 50 49 49 49 49 48 47 47 47 45 45 45 44 42 42 42 42 42 41 40 39 40 38 39 39 38 38 38 38 38 37 36 35 34 34 34 34 33
28 27 21 24 18 20 13 15 16 14 10 3 11 8 7 17 13 13 6 6 12 12 12 11 12 15 18 22 26 30 31 33 35 38 38 38 38 38 38 39 40 40 39 39 41 43 43 43 43 43 44 45 46 48 48 49 48 49 48 48 47 48 48 48 47 47 47 46 45 44 43 42 42 41 41 41 40 39 38 37 36 37 36 36 36 35 36 35 35 34 33 34 32 33 34 34 32
21 21 20 19 19 21 21 17 15 12 8 7 5 6 11 16 17 12 8 5 4 4 8 15 19 20 19 21 24 29 31 32 36 39 39 38 38 37 37 38 38 38 38 39 42 44 44 43 43 44 48 48 48 48 48 47 47 47 46 47 47 47 47 47 47 47 46 44 43 43 43 41 39 39 38 38 38 38 37 36 36 36 36 35 35 34 33 34 34 34 33 33 31 32 34 32 31
22 21 20 18 17 14 12 14 18 13 7 8 2 9 14 17 17 13 10 9 9 10 13 17 18 19 21 24 25 27 31 33 37 38 38 38 37 37 37 37 36 38 38 40 42 44 44 45 45 46 48 49 48 48 47 46 46 46 46 45 45 44 45 46 46 45 44 43 41 41 39 38 39 35 38 38 37 36 36 36 36 36 35 35 35 35 33 33 34 34 33 33 30 31 32 31 30